Location: Astroquest
(35.1187°N, 89.7105°W)
Time: 05:20:40
(UTC-06:00)

N. Korean satellite - Visible Passes

Search period start: 21 February 2018 00:00
Search period end: 03 March 2018 00:00
Orbit: 459 x 514 km, 97.2° (Epoch: 21 February)

Date Brightness Start Highest point End Pass type
(mag) Time Alt. Az. Time Alt. Az. Time Alt. Az.
21 Feb 10.2 05:41:34 10° ENE 05:43:41 15° E 05:45:50 10° SE visible
22 Feb 10.2 18:58:26 10° WSW 18:59:53 12° W 19:01:21 10° WNW visible
23 Feb 9.1 18:33:06 10° SSW 18:36:00 25° W 18:38:57 10° NW visible
24 Feb 9.1 06:02:48 10° NE 06:06:03 29° E 06:09:20 10° SSE visible
25 Feb 10.3 05:40:07 10° ENE 05:42:12 14° E 05:44:17 10° SE visible
26 Feb 10.1 18:56:43 10° WSW 18:58:20 13° W 18:59:59 10° WNW visible
27 Feb 9.1 18:31:29 10° SSW 18:34:27 26° W 18:37:27 10° NW visible
28 Feb 9.2 06:01:17 10° NE 06:04:32 28° E 06:07:47 10° SSE visible
01 Mar 10.3 05:38:39 10° ENE 05:40:39 14° E 05:42:41 10° SE visible
02 Mar 10.1 18:54:57 10° SW 18:56:44 13° W 18:58:33 10° WNW visible
